Regional Weather Roundup
Issued by NWS

Home | Current Version | Previous Version | Graphics & Text | Print | Product List | Glossary On
Versions: 1 2 3 4 5 6 7 8 9 10 11 12 13 14 15 16 17 18 19 20 21 22 23 24 25 26 27 28 29 30 31 32 33 34 35 36 37 38 39 40 41 42 43 44 45 46 47 48 49 50
000
ASUS43 KLOT 292100
RWRIL

ILLINOIS REGIONAL WEATHER ROUNDUP
NATIONAL WEATHER SERVICE CHICAGO/ROMEOVILLE IL
300 PM CST THU JAN 29 2015

NOTE: "FAIR" INDICATES FEW OR NO CLOUDS BELOW 12,000 FEET WITH NO
SIGNIFICANT WEATHER AND/OR OBSTRUCTIONS TO VISIBILITY.

* THESE STATIONS ARE NOT UNDER NWS QUALITY CONTROL. THEY ALSO MAY NOT
  REPORT WEATHER SUCH AS PRECIPITATION OR FOG.

ILZ001-002-007-009-015-016-024-292200-
NORTHWEST ILLINOIS

CITY           SKY/WX    TMP DP  RH WIND       PRES   REMARKS
MOLINE         CLOUDY    35  29  78 NW18G26   30.15R WCI  24
STERLING*      CLOUDY    37  28  70 NW14G22   30.10R WCI  29
$$

ILZ003-004-008-010-011-017-018-292200-
NORTH CENTRAL ILLINOIS

CITY           SKY/WX    TMP DP  RH WIND       PRES   REMARKS
ROCKFORD       CLOUDY    36  25  64 NW20      30.08R WCI  25
$$

ILZ005-006-012>014-019>023-292200-
NORTHEAST ILLINOIS

CITY           SKY/WX    TMP DP  RH WIND       PRES   REMARKS
CHICAGO-OHARE  CLOUDY    34  26  72 NW13G28   30.02R WCI  25
CHICAGO-MIDWAY CLOUDY    36  27  69 NW16G22   30.02R WCI  26
AURORA         CLOUDY    35  27  72 NW18      30.05R WCI  24
WAUKEGAN       CLOUDY    34  26  72 NW8G18    30.00R WCI  27
DUPAGE AIRPORT LGT RAIN  34  26  72 NW15G24   30.03R WCI  24
WHEELING       CLOUDY    34  26  72 NW20G26   30.03R WCI  23
NORTHERLY ISL    N/A     35  26  70 NW9         N/A  WCI  28
$$

LMZ740>746-292200-
SOUTHERN LAKE MICHIGAN

STATION/POSITION SKY/WX   TEMP    WIND        PRES    VSBY  WAVE
                          AIR SEA DIR/SP/G                  HT/PER
                          (F)     (DEG/KT/KT) (MB)    (MI)  (FT/S)
WAUKEGAN HARBOR            34     310/ 19/ 25   N/A
HARRISON CRIB              33     320/ 18/ 22   N/A
BURNHAM HARBOR             35     290/  8/ 17   N/A
CALUMET HARBOR             34     300/ 12/ 23   N/A
MICHIGAN CITY              33     310/ 25/ 31   N/A
$$

ILZ025>027-034>036-040-047-049-050-058-095>099-292200-
WEST-CENTRAL ILLINOIS

CITY           SKY/WX    TMP DP  RH WIND       PRES   REMARKS
QUINCY         CLOUDY    35  28  75 NW18      30.23R WCI  24
$$

ILZ028>032-037-038-041>044-048-051>054-059>061-292200-
CENTRAL ILLINOIS

CITY           SKY/WX    TMP DP  RH WIND       PRES   REMARKS
DECATUR        CLOUDY    37  31  78 NW17G24   30.13R HAZE    WCI  27
PEORIA         CLOUDY    38  31  76 NW14G20   30.14R WCI  30
SPRINGFIELD    CLOUDY    38  31  76 NW18G25   30.16R WCI  28
TAYLORVILLE    NOT AVBL
$$

ILZ033-039-045-046-055>057-062-063-292200-
EAST-CENTRAL ILLINOIS

CITY           SKY/WX    TMP DP  RH WIND       PRES   REMARKS
CHAMPAIGN      CLOUDY    35  30  82 NW15      30.09R HAZE    WCI  25
MATTOON        CLOUDY    35  30  82 NW18      30.11R HAZE    WCI  24
$$

ILZ079-100>102-292200-
SOUTHWEST ILLINOIS

CITY           SKY/WX    TMP DP  RH WIND       PRES   REMARKS
BELLEVILLE     CLOUDY    40  34  78 NW15      30.20R
CAHOKIA*       CLOUDY    42  32  67 NW14G23   30.21R
$$

ILZ064>066-069>071-074>076-080>082-084>086-088>090-092>094-292200-
SOUTH-CENTRAL ILLINOIS

CITY           SKY/WX    TMP DP  RH WIND       PRES   REMARKS
CARBONDALE     CLOUDY    42  30  62 NW16G25   30.19R
MARION         CLOUDY    43  32  65 NW15G23   30.20R
MT. VERNON     CLOUDY    39  28  65 NW6       30.18R WCI  35
$$

ILZ067-068-072-073-078-083-087-091-292200-
SOUTHEAST ILLINOIS

CITY           SKY/WX    TMP DP  RH WIND       PRES   REMARKS
LAWRENCEVILLE  CLOUDY    38  31  76 NW22G31   30.12R HAZE    WCI  27
$$

ABBREVIATIONS USED IN REMARKS
   TC - TEMPERATURE IN CELSIUS
  WCI - WIND CHILL INDEX
   HX - HEAT INDEX
  VSB - VISIBILITY
$$




USA.gov is the U.S. government's official web portal to all federal, state and local government web resources and services.